Regional Weather Roundup
Issued by NWS

Home | Current Version | Previous Version | Text Only | Print | Product List | Glossary On
Versions: 1 2 3 4 5 6 7 8 9 10 11 12 13 14 15 16 17 18 19 20 21 22 23 24 25 26 27 28 29 30 31 32 33 34 35 36 37 38 39 40 41 42 43 44 45 46 47 48 49 50
486
ASUS43 KLMK 081702
RWRKY
KENTUCKY REGIONAL WEATHER ROUNDUP
NATIONAL WEATHER SERVICE LOUISVILLE KY
1200 PM EST MON FEB 08 2016

NOTE "FAIR" INDICATES FEW OR NO CLOUDS BELOW 12,000 FEET
WITH NO SIGNIFICANT WEATHER AND/OR OBSTRUCTIONS TO VISIBILITY.

KYZ001>023-026-027-061>063-070>075-081800-
WESTERN AND SOUTH CENTRAL KENTUCKY

CITY           SKY/WX    TMP DP  RH WIND       PRES   REMARKS
PADUCAH        LGT SNOW  33  26  75 NW15G29   29.85R WCI  23
HENDERSON      CLOUDY    37  23  56 W23       29.79R WCI  26
OWENSBORO      PTSUNNY   38  28  67 W18G28    29.77S WCI  28
HOPKINSVILLE   FLURRIES  39  25  57 W13       29.80S WCI  32
BOWLING GREEN  CLOUDY    42  29  59 NW10      29.77F
GLASGOW        NOT AVBL
$$

KYZ024-025-028>034-038-045-046-053-081800-
NORTH CENTRAL KENTUCKY

CITY           SKY/WX    TMP DP  RH WIND       PRES   REMARKS
LOUISVILLE/SDF PTSUNNY   40  32  73 W15       29.71F WCI  32
LOUISVILLE/LOU CLOUDY    38  32  79 W13       29.72S WCI  30
FORT KNOX      PTSUNNY   38  32  79 W13       29.71S WCI  30
$$

KYZ035>037-039>044-047>052-055>060-089>105-081800-
NORTHEAST KENTUCKY

CITY           SKY/WX    TMP DP  RH WIND       PRES   REMARKS
LEXINGTON      LGT SNOW  33  31  92 SW9       29.69S VSB 3/4 WCI  25
COVINGTON      CLOUDY    37  32  82 W7        29.66S WCI  32
FRANKFORT      CLOUDY    36  32  85 W10       29.68S WCI  28
$$

KYZ054-064>069-076>088-106>120-081800-
SOUTHEAST KENTUCKY

CITY           SKY/WX    TMP DP  RH WIND       PRES   REMARKS
JACKSON        PTSUNNY   44  33  65 VRB3      29.66F
LONDON         LGT SNOW  36  30  79 W15G30    29.69S WCI  27
SOMERSET       NOT AVBL
MIDDLESBORO    NOT AVBL
MONTICELLO     LGT RAIN  39  35  86 W16G24    29.75R WCI  30
$$





USA.gov is the U.S. government's official web portal to all federal, state and local government web resources and services.